This is the latest recevied weather packets stored in our database for station/object K1JO. If no packets are shown the sender has not sent any weather packets the latest 10 day(s).
| Time | Temp. | Humidity | Pressure | Rain* | Wind** | Luminosity | Snow |
|---|---|---|---|---|---|---|---|
| 1777437572 | 1.11° C | 84% | 1016.4 hPa | 0 mm | - | 0 W/m² | - |
| 1777437270 | 1.11° C | 84% | 1016.4 hPa | 0 mm | - | 0 W/m² | - |
| 1777436966 | 1.67° C | 80% | 1016.4 hPa | 0 mm | - | 0 W/m² | - |
| 1777436663 | 1.11° C | 81% | 1016.2 hPa | 0 mm | - | 0 W/m² | - |
| 1777436359 | 1.11° C | 81% | 1016.4 hPa | 0 mm | - | 0 W/m² | - |
| 1777436054 | 1.11° C | 80% | 1016.6 hPa | 0 mm | - | 0 W/m² | - |
| 1777435751 | 1.67° C | 80% | 1016.8 hPa | 0 mm | - | 0 W/m² | - |
| 1777435448 | 1.67° C | 77% | 1016.8 hPa | 0 mm | - | 0 W/m² | - |
| 1777435143 | 1.67° C | 78% | 1017 hPa | 0 mm | - | 0 W/m² | - |
| 1777434838 | 1.67° C | 77% | 1017.1 hPa | 0 mm | - | 0 W/m² | - |
| 1777434537 | 1.67° C | 76% | 1016.8 hPa | 0 mm | - | 0 W/m² | - |
| 1777434235 | 1.67° C | 74% | 1016.9 hPa | 0 mm | - | 0 W/m² | - |
| 1777433931 | 1.67° C | 76% | 1016.9 hPa | 0 mm | - | 0 W/m² | - |
| 1777433628 | 2.22° C | 78% | 1016.7 hPa | 0 mm | - | 0 W/m² | - |
| 1777433324 | 2.22° C | 76% | 1016.8 hPa | 0 mm | - | 0 W/m² | - |
| 1777433020 | 1.67° C | 73% | 1016.9 hPa | 0 mm | - | 0 W/m² | - |
| 1777432715 | 2.22° C | 73% | 1017 hPa | 0 mm | - | 0 W/m² | - |
| 1777432411 | 2.22° C | 72% | 1016.9 hPa | 0 mm | - | 0 W/m² | - |
| 1777432107 | 2.22° C | 74% | 1017.1 hPa | 0 mm | - | 0 W/m² | - |
| 1777431801 | 2.22° C | 73% | 1017.1 hPa | 0 mm | - | 0 W/m² | - |
| 1777431498 | 2.22° C | 74% | 1017 hPa | 0 mm | - | 0 W/m² | - |
| 1777431194 | 2.22° C | 72% | 1017.2 hPa | 0 mm | - | 0 W/m² | - |
| 1777430890 | 2.78° C | 71% | 1017.3 hPa | 0 mm | - | 0 W/m² | - |
| 1777430587 | 2.78° C | 69% | 1017.2 hPa | 0 mm | - | 0 W/m² | - |
| 1777430282 | 2.78° C | 70% | 1017.4 hPa | 0 mm | - | 0 W/m² | - |
* Rain latest hour (hover to see other rain measurements)
** Current wind speed in m/s (hover to see current wind gust speed)